COSMOS 2361

Satellite information

Favourite Embed

Satellite Type and Status

PAYLOADIN ORBIT

Key statistics

Satellite COSMOS 2361 at a glance.

Uptime

9852

Days in orbit

Revolutions

≈ 13.7

Per day

Orbit

LEO

Low Earth Orbit

Inclination

82.9

Latest

Satellite identification and parameters

Extended collection of information and parameters for COSMOS 2361.

Object identification

Identified? True

Debris? False

Object name: COSMOS 2361

International designator: 1998-076A

Object number (NORAD): 25590

Object ID (CCSDS): 25590

Country: COMMONWEALTH OF INDEPENDENT STATES (CIS)

Current information (Y/N): Y

RCS size: LARGE

Orbital parameters

Period: 104.863 minutes

Inclination: 82.9339 deg

SMA: 7366.179 km

Apoapsis: 1010.19 km

Periapsis: 965.898 km

RAAN: 343.529 deg

Eccentricy: 0.00300642

Argument of periapsis: 263.4152 deg

Mean anomaly: 210.3865 deg

Mean motion: 13.73217612 rev/day

Mean motion (dot): 0.00000102 rev/day2

B* drag term: 0.000093866518 1/REarth

Two-line elements (TLE)

Creation date: Dec. 14, 2025, 3:07 a.m.

Reference frame: TEME

Reference center: EARTH

Epoch: Dec. 13, 2025, 11:50 a.m. UTC

TLE line 0: 0 COSMOS 2361

TLE line 1: 1 25590U 98076A 25347.49329969 .00000102 00000-0 93867-4 0 9993

TLE line 2: 2 25590 82.9339 343.5290 0030064 263.4152 210.3865 13.73217612351219

Live tracking on map

Real-time ground track for satellite COSMOS 2361.

In-orbit conjunctions

A list of the most updated potential collisions computed for object COSMOS 2361.

Target Orbit TCA Probability of collision Miss distance Type
DELTA 1 DEB SSO 2025-08-22 18:33:10 0.0001650113 576.0 (m) DEBRIS
CZ-4 DEB SSO 2024-08-15 15:34:38 0.0004772378 127.0 (m) DEBRIS

Associated space launch

Navigation satellite providing location information for the Tsiklon-B navigation system

COSMOS 2361 was lifted into orbit during the mission ‘Kosmos-3M | Parus 90’, on board a Kosmos-3M space rocket.

The launch took place on Dec. 24, 1998, 8:02 p.m. from 132/1 (132L).

For more information about the launch, click the button.

Launch to space Kosmos-3M | Parus 90
Kosmos-3M | Parus 90

Agency: N/A

Status: Launch Successful

Launch date: Dec. 24, 1998, 8:02 p.m. UTC

Rocket: Kosmos-3M

Launch pad: 132/1 (132L)

Location: Plesetsk Cosmodrome, Russian Federation

...

Latest news about this satellite

There are no fresh news available about this satellite. Check back as we update our databases every day.


Newsletter sign-up

Weekly statistics, charts and insights to help you stay on top of the space industry.